[[{"header":{"parameterUnit":"m.s-1","parameterCategory":2,"la1":30.2991,"la2":30.254,"lo1":-89.0895,"lo2":-89.0444,"dy":0.0017,"dx":0.0017,"nx":28,"ny":28,"refTime":"2024-07-06T21:00:00:Z","depth":"0","parameterNumber":2,"parameterNumberName":"U-component_of_CURRENTS"},"data":[0,0,0,0,0,0,0,0,0,0,0,0,0,0,0,0,0,0,0,0,0,0,0,0,0,0,0,0,0,0,0,0,0,0,0,0,0,0,0,0,0,0,0,0,0,0,0,0,0,0,0,0,0,0,0,0,0,0,-0.3285,-0.3286,0,-0.3368,-0.3368,-0.3368,-0.3256,-0.3253,-0.325,-0.3247,-0.3122,-0.3121,-0.3121,0,0,0,0,0,0,0,0,0,0,0,0,0,-0.3007,-0.3012,-0.3285,-0.3287,-0.3288,-0.3367,-0.3368,-0.3368,-0.3257,-0.3253,-0.3249,-0.3246,-0.3122,-0.3121,-0.3121,0,0,0,0,0,0,0,0,0,0,0,0,0,-0.3104,-0.3014,-0.3284,-0.3249,-0.3248,-0.3367,-0.3368,-0.3368,-0.3258,-0.3253,-0.3248,-0.3244,-0.3122,-0.3121,-0.3121,-0.3212,0,0,-0.3119,-0.3119,0,0,0,0,0,0,0,0,-0.3098,-0.3113,-0.3253,-0.3252,-0.3251,-0.3305,-0.3224,-0.3309,-0.3259,-0.3244,-0.3247,-0.3241,-0.3173,-0.3168,-0.3184,-0.3206,-0.3201,-0.3119,-0.3119,-0.3118,-0.3118,0,0,0,0,0,0,0,-0.3092,-0.3109,-0.3308,-0.3255,-0.3254,-0.3222,-0.323,-0.324,-0.3223,-0.3245,-0.324,-0.3265,-0.3169,-0.3185,-0.318,-0.3199,-0.3119,-0.3118,-0.3118,-0.3118,-0.3183,-0.3185,0,0,0,0,0,0,-0.3108,-0.3104,-0.3306,-0.3311,-0.3172,-0.3232,-0.324,-0.3285,-0.3227,-0.3219,-0.3269,-0.326,-0.3188,-0.3181,-0.3175,-0.3145,-0.3118,-0.3118,-0.3117,-0.3181,-0.3183,-0.3185,0,0,0,0,0,0,-0.3102,-0.3126,-0.3302,-0.3214,-0.3235,-0.3243,-0.3293,-0.3289,-0.3288,-0.325,-0.3233,-0.3271,-0.3184,-0.3176,-0.3183,-0.3143,-0.3117,-0.3117,-0.3178,-0.3181,-0.3184,-0.317,0,0,0,0,0,0,-0.3094,-0.3124,-0.3154,-0.3217,-0.3242,-0.3383,-0.3299,-0.3294,-0.3317,-0.3304,-0.3248,-0.3232,-0.318,-0.3185,-0.3183,-0.3142,-0.3117,-0.3176,-0.318,-0.3183,-0.3168,-0.3173,-0.3176,0,0,0,0,0,-0.3084,-0.3154,-0.3156,-0.318,-0.3287,-0.3388,-0.3397,-0.3377,-0.3322,-0.335,-0.3302,-0.3232,-0.3206,-0.3188,-0.3185,-0.3142,-0.3174,-0.3178,-0.3183,-0.3166,-0.3172,-0.3176,0,0,0,0,0,0,-0.3025,-0.3153,-0.3154,-0.3251,-0.3318,-0.3371,-0.34,-0.3392,-0.3384,-0.335,-0.3283,-0.3268,-0.3259,-0.3237,-0.3219,-0.3181,-0.317,-0.3175,-0.3159,-0.3164,-0.3168,-0.3069,-0.3116,0,0,0,0,0,-0.3041,-0.3125,-0.3227,-0.3292,-0.3337,-0.3369,-0.3401,-0.3401,-0.3413,-0.3402,-0.3366,-0.3321,-0.3288,-0.3253,-0.3251,-0.3245,-0.3194,-0.3215,-0.3219,-0.3222,-0.3146,-0.3086,-0.3074,-0.3201,-0.3201,-0.3201,0,0,-0.3024,-0.3111,-0.3149,-0.3286,-0.3325,-0.3355,-0.3373,-0.344,-0.3402,-0.3394,-0.3337,-0.3359,-0.3305,-0.3284,-0.3273,-0.3243,-0.3177,-0.3228,-0.323,-0.315,-0.3089,-0.3075,-0.3063,-0.3204,-0.3203,-0.3203,0,0,-0.304,-0.3125,-0.3196,-0.3258,-0.3358,-0.3369,-0.3392,-0.3464,-0.3435,-0.3453,-0.3401,-0.3389,-0.3383,-0.3298,-0.3255,-0.3289,-0.3227,-0.3319,-0.3214,-0.316,-0.3146,-0.3133,-0.3106,-0.309,-0.3287,-0.3287,-0.3287,0,-0.2999,-0.3082,-0.3225,-0.3291,-0.3284,-0.3363,-0.3359,-0.3377,-0.3423,-0.339,-0.3426,-0.3376,-0.3351,-0.323,-0.3232,-0.3278,-0.3267,-0.319,-0.3155,-0.3141,-0.3128,-0.3103,-0.3086,-0.3286,-0.3286,-0.3286,-0.3286,0,-0.3058,-0.3091,-0.3135,-0.3204,-0.3249,-0.3265,-0.331,-0.3331,-0.3321,-0.3318,-0.3285,-0.3295,-0.3236,-0.3252,-0.3235,-0.3128,-0.3163,-0.3192,-0.3121,-0.3113,-0.3091,-0.3072,-0.3286,-0.3286,-0.3286,-0.3286,0,0,-0.2954,-0.313,-0.3116,-0.3111,-0.3174,-0.3213,-0.3173,-0.315,-0.311,-0.316,-0.3083,-0.3048,-0.3089,-0.3043,-0.3054,-0.299,-0.2922,-0.3041,-0.3039,-0.2974,-0.2829,-0.2757,-0.2731,-0.2961,-0.2957,-0.2953,-0.2869,0,-0.2884,-0.2967,-0.3044,-0.2998,-0.301,-0.3046,-0.3005,-0.3013,-0.3024,-0.301,-0.2986,-0.2967,-0.2994,-0.3004,-0.2934,-0.2954,-0.2867,-0.2942,-0.2878,-0.2874,-0.2776,-0.2702,-0.2579,-0.2482,-0.2851,-0.2848,-0.2846,0,-0.2826,-0.2893,-0.2877,-0.2884,-0.2889,-0.2871,-0.2811,-0.2797,-0.2801,-0.2827,-0.2801,-0.2845,-0.2756,-0.2821,-0.272,-0.2786,-0.2763,-0.2769,-0.2767,-0.2659,-0.2763,-0.2545,-0.2436,-0.2431,-0.2818,-0.282,-0.2822,0,-0.2647,-0.2708,-0.2671,-0.2678,-0.2751,-0.2715,-0.2713,-0.2731,-0.2723,-0.2719,-0.2759,-0.2684,-0.2687,-0.2632,-0.2642,-0.2691,-0.2559,-0.2635,-0.2522,-0.2521,-0.2367,-0.2357,-0.2186,-0.249,-0.249,-0.249,-0.2491,0,-0.248,-0.2433,-0.2606,-0.259,-0.2523,-0.2624,-0.2559,-0.2567,-0.2619,-0.2543,-0.2659,-0.2609,-0.2645,-0.2606,-0.259,-0.2487,-0.2503,-0.2436,-0.2455,-0.2372,-0.2364,-0.2315,-0.2369,-0.2487,-0.2488,-0.2489,-0.2489,0,-0.224,-0.2357,-0.232,-0.2418,-0.2444,-0.2394,-0.2475,-0.242,-0.2552,-0.2467,-0.2468,-0.2554,-0.2485,-0.2517,-0.2439,-0.2419,-0.2291,-0.2287,-0.22,-0.2205,-0.2095,-0.2156,-0.1973,-0.192,-0.2139,-0.2136,-0.2134,0,-0.2125,-0.2103,-0.2178,-0.2143,-0.2167,-0.2184,-0.2143,-0.2306,-0.225,-0.2365,-0.2248,-0.2309,-0.219,-0.2162,-0.2138,-0.2074,-0.2128,-0.1956,-0.1974,-0.199,-0.2074,-0.2143,-0.2119,-0.181,-0.1805,-0.1801,-0.1798,0,-0.1866,-0.1891,-0.1877,-0.1847,-0.1806,-0.1783,-0.1766,-0.1772,-0.1868,-0.1859,-0.1773,-0.1758,-0.1809,-0.173,-0.1788,-0.1742,-0.1911,-0.1869,-0.1885,-0.1748,-0.1806,-0.1801,-0.2017,-0.1762,-0.1766,-0.1768,-0.177,-0.1772,-0.1636,-0.156,-0.1563,-0.1503,-0.144,-0.134,-0.1288,-0.1265,-0.1203,-0.1147,-0.1214,-0.1112,-0.1356,-0.1423,-0.1417,-0.1485,-0.1588,-0.1486,-0.1549,-0.1611,-0.1547,-0.1679,-0.1454,-0.1456,-0.1457,-0.1459,-0.146,0,-0.1396,-0.1344,-0.1228,-0.1163,-0.1007,-0.108,-0.0979,-0.0912,-0.0749,-0.0635,-0.0548,-0.0543,-0.071,-0.0987,-0.1237,-0.1211,-0.1215,-0.1224,-0.1288,-0.1272,-0.1357,-0.1327,-0.1062,-0.1062,-0.1062,-0.1062,-0.1062,-0.1063,-0.1269,-0.1125,-0.109,-0.0815,-0.0736,-0.0555,-0.0487,-0.0362,-0.0269,-0.004,0.0074,0.0093,-0.0362,-0.0935,-0.116,-0.1131,-0.1152,-0.11,-0.1177,-0.1259,-0.129,-0.1319,-0.1299,-0.1033,-0.1033,-0.1016,-0.1017,-0.1017]},{"header":{"parameterUnit":"m.s-1","parameterCategory":2,"la1":30.2991,"la2":30.254,"lo1":-89.0895,"lo2":-89.0444,"dy":0.0017,"dx":0.0017,"nx":28,"ny":28,"refTime":"2024-07-06T21:00:00:Z","depth":"0","parameterNumber":3,"parameterNumberName":"V-component_of_CURRENTS"},"data":[0,0,0,0,0,0,0,0,0,0,0,0,0,0,0,0,0,0,0,0,0,0,0,0,0,0,0,0,0,0,0,0,0,0,0,0,0,0,0,0,0,0,0,0,0,0,0,0,0,0,0,0,0,0,0,0,0,0,0.0049,0.005,0,0.0166,0.0168,0.0169,0.0271,0.0272,0.0273,0.0274,0.0351,0.0352,0.0353,0,0,0,0,0,0,0,0,0,0,0,0,0,0.0046,0.0045,0.0049,0.005,0.0051,0.0166,0.0168,0.0169,0.0271,0.0272,0.0273,0.0274,0.0351,0.0352,0.0354,0,0,0,0,0,0,0,0,0,0,0,0,0,0.0095,0.0045,0.0048,0.0115,0.0122,0.0165,0.0168,0.017,0.027,0.0272,0.0274,0.0275,0.035,0.0352,0.0354,0.0333,0,0,0.0359,0.036,0,0,0,0,0,0,0,0,0.0092,0.0095,0.0103,0.011,0.0118,0.0204,0.0195,0.0222,0.027,0.0215,0.0274,0.0276,0.0296,0.0302,0.0324,0.0337,0.034,0.0359,0.036,0.0361,0.0361,0,0,0,0,0,0,0,0.0088,0.0091,0.0097,0.0105,0.0114,0.0185,0.0192,0.0202,0.0246,0.022,0.0228,0.0238,0.03,0.0322,0.0326,0.0341,0.0359,0.036,0.0361,0.0362,0.0414,0.0415,0,0,0,0,0,0,0.0061,0.0087,0.0093,0.01,0.0107,0.0182,0.0191,0.0176,0.0247,0.0259,0.0236,0.0242,0.0318,0.0324,0.0329,0.0338,0.0361,0.0362,0.0363,0.0414,0.0415,0.0415,0,0,0,0,0,0,0.0061,0.006,0.0088,0.0097,0.0106,0.018,0.0163,0.0178,0.0202,0.026,0.0272,0.0246,0.032,0.0327,0.0347,0.034,0.0363,0.0364,0.0414,0.0414,0.0415,0.0335,0,0,0,0,0,0,0.0059,0.0058,0.0035,0.0094,0.0104,0.0109,0.0162,0.0179,0.0205,0.0214,0.0271,0.0281,0.0322,0.0344,0.0348,0.0343,0.0366,0.0413,0.0414,0.0415,0.0338,0.0333,0.033,0,0,0,0,0,0.0059,0.0013,0.0032,0.0033,0.0069,0.0108,0.0119,0.0181,0.0204,0.0209,0.0254,0.0279,0.0353,0.0345,0.035,0.0345,0.0413,0.0414,0.0414,0.0339,0.0334,0.033,0,0,0,0,0,0,0.0004,0.0021,0.0043,0.0006,0.0053,0.0125,0.0125,0.0168,0.0208,0.0212,0.0271,0.0282,0.0312,0.0333,0.0323,0.0367,0.0391,0.0393,0.0333,0.0328,0.0324,0.0273,0.0367,0,0,0,0,0,-0.0023,-0.006,-0.0004,-0.0034,-0.0018,0.0051,0.0072,0.0116,0.0162,0.0182,0.0228,0.0274,0.0318,0.0325,0.0372,0.0366,0.0402,0.0374,0.037,0.0366,0.0331,0.0386,0.0383,0.0418,0.0418,0.0418,0,0,-0.0052,-0.005,-0.0068,-0.0049,-0.0012,-0.0009,0.0068,0.0089,0.0098,0.0179,0.0195,0.0263,0.032,0.0344,0.0356,0.0355,0.0383,0.0367,0.0363,0.033,0.0387,0.0383,0.038,0.0418,0.0418,0.0418,0,0,-0.0128,-0.0126,-0.0173,-0.0148,-0.0107,-0.0061,-0.006,0.0011,0.0051,0.0078,0.0154,0.0203,0.0257,0.03,0.0327,0.0317,0.0375,0.0349,0.0263,0.0318,0.0314,0.0312,0.0379,0.0383,0.0328,0.0328,0.0328,0,-0.0161,-0.0213,-0.0174,-0.0202,-0.0189,-0.0095,-0.0115,-0.0071,0.0003,0.0033,0.007,0.0182,0.023,0.026,0.0267,0.0302,0.0353,0.0273,0.0309,0.0307,0.0306,0.0375,0.038,0.0324,0.0324,0.0325,0.0325,0,-0.0256,-0.0293,-0.0316,-0.0328,-0.0307,-0.0307,-0.0238,-0.0201,-0.0138,-0.0079,-0.0011,0.007,0.0137,0.017,0.0207,0.0229,0.0277,0.0312,0.0312,0.0297,0.0372,0.0379,0.0319,0.032,0.0321,0.0322,0,0,-0.0321,-0.0377,-0.0379,-0.0402,-0.0369,-0.0358,-0.0345,-0.0288,-0.0257,-0.0183,-0.0141,-0.0068,0.0004,0.0037,0.0112,0.0139,0.0187,0.0204,0.0208,0.0252,0.0324,0.0402,0.0418,0.0235,0.0236,0.0236,0.0389,0,-0.0392,-0.0487,-0.0483,-0.0539,-0.0564,-0.0489,-0.0472,-0.041,-0.0325,-0.0257,-0.017,-0.0094,-0.0053,0.0003,0.0029,0.0169,0.0198,0.0143,0.0346,0.0351,0.0407,0.0425,0.0487,0.0632,0.0397,0.0398,0.0399,0,-0.0457,-0.0515,-0.06,-0.0626,-0.0625,-0.0638,-0.0569,-0.0548,-0.0434,-0.0356,-0.0285,-0.018,-0.0116,-0.0069,0.0083,0.0054,0.0161,0.025,0.026,0.0351,0.044,0.0607,0.0654,0.0799,0.041,0.0409,0.0408,0,-0.049,-0.0577,-0.0652,-0.0665,-0.0683,-0.0686,-0.0675,-0.0576,-0.0517,-0.0417,-0.0327,-0.0248,-0.0146,-0.0052,0.0135,0.012,0.032,0.0337,0.0497,0.0505,0.0603,0.0619,0.0792,0.042,0.0419,0.0419,0.0418,0,-0.0545,-0.0589,-0.068,-0.0716,-0.0755,-0.075,-0.0729,-0.068,-0.058,-0.047,-0.0389,-0.0245,-0.0133,0.002,0.013,0.0348,0.0325,0.0476,0.0544,0.0583,0.0595,0.0761,0.0804,0.0425,0.0423,0.0422,0.0421,0,-0.0531,-0.0609,-0.0688,-0.0758,-0.0774,-0.0796,-0.0764,-0.0718,-0.0627,-0.0477,-0.0434,-0.0228,-0.0024,0.0093,0.03,0.0394,0.0667,0.0638,0.0679,0.0746,0.1003,0.1038,0.1233,0.1344,0.0824,0.0827,0.0829,0,-0.0521,-0.0574,-0.0703,-0.074,-0.0773,-0.08,-0.0779,-0.0737,-0.0658,-0.0411,-0.0317,-0.01,0.0164,0.0453,0.0569,0.0745,0.0829,0.0925,0.0884,0.1022,0.1112,0.1113,0.1191,0.1003,0.1007,0.101,0.1012,0,-0.0473,-0.0535,-0.0605,-0.0694,-0.0732,-0.0752,-0.0727,-0.0677,-0.055,-0.0414,-0.0111,0.012,0.0444,0.0703,0.088,0.0982,0.1044,0.0991,0.113,0.1251,0.1268,0.1406,0.0902,0.1038,0.1035,0.1033,0.1032,0.1031,-0.0399,-0.0445,-0.0547,-0.0618,-0.0655,-0.0655,-0.0633,-0.0571,-0.0454,-0.0202,0.0018,0.0375,0.0858,0.1127,0.1202,0.1363,0.1287,0.1441,0.1472,0.146,0.156,0.111,0.1319,0.1318,0.1318,0.1317,0.1316,0,-0.0308,-0.0378,-0.0443,-0.0529,-0.0528,-0.0582,-0.0536,-0.0471,-0.032,-0.0125,0.0152,0.0792,0.1166,0.1459,0.1704,0.1835,0.1843,0.19,0.1915,0.1973,0.159,0.1592,0.1875,0.1875,0.1875,0.1875,0.1874,0.1874,-0.0264,-0.0316,-0.0379,-0.0378,-0.0411,-0.038,-0.0352,-0.0263,-0.0141,0.0199,0.0505,0.0836,0.1434,0.1931,0.22,0.2234,0.239,0.2347,0.243,0.2158,0.2116,0.2077,0.209,0.2474,0.2474,0.2815,0.2818,0.282]}],[{"header":{"parameterUnit":"m.s-1","parameterCategory":2,"la1":30.2991,"la2":30.254,"lo1":-89.0895,"lo2":-89.0444,"dy":0.0017,"dx":0.0017,"nx":28,"ny":28,"refTime":"2024-07-06T21:00:00:Z","depth":"2","parameterNumber":2,"parameterNumberName":"U-component_of_CURRENTS"},"data":[0,0,0,0,0,0,0,0,0,0,0,0,0,0,0,0,0,0,0,0,0,0,0,0,0,0,0,0,0,0,0,0,0,0,0,0,0,0,0,0,0,0,0,0,0,0,0,0,0,0,0,0,0,0,0,0,0,0,-0.2423,-0.2422,0,-0.2476,-0.2477,-0.2479,-0.2529,-0.2529,-0.2528,-0.2528,-0.2663,-0.2667,-0.2671,0,0,0,0,0,0,0,0,0,0,0,0,0,-0.234,-0.2342,-0.2423,-0.2422,-0.2422,-0.2475,-0.2477,-0.2479,-0.2529,-0.2529,-0.2528,-0.2528,-0.2662,-0.2667,-0.2671,0,0,0,0,0,0,0,0,0,0,0,0,0,-0.2393,-0.2343,-0.2423,-0.2446,-0.2448,-0.2475,-0.2477,-0.2479,-0.2529,-0.2529,-0.2528,-0.2528,-0.266,-0.2666,-0.2672,-0.2718,0,0,-0.269,-0.2692,0,0,0,0,0,0,0,0,-0.239,-0.2397,-0.2443,-0.2444,-0.2446,-0.2486,-0.2497,-0.256,-0.2529,-0.2509,-0.2528,-0.2528,-0.2605,-0.2615,-0.264,-0.2724,-0.273,-0.269,-0.2694,-0.2696,-0.2698,0,0,0,0,0,0,0,-0.2386,-0.2395,-0.2454,-0.2442,-0.2444,-0.2444,-0.2453,-0.2509,-0.2569,-0.2511,-0.2512,-0.2502,-0.2608,-0.2635,-0.2644,-0.2732,-0.269,-0.2695,-0.2699,-0.2701,-0.2773,-0.2772,0,0,0,0,0,0,-0.2361,-0.2392,-0.2452,-0.2455,-0.2404,-0.2445,-0.2455,-0.2482,-0.2567,-0.2575,-0.2502,-0.2503,-0.2625,-0.2637,-0.2649,-0.2646,-0.2696,-0.2702,-0.2705,-0.2775,-0.2773,-0.2771,0,0,0,0,0,0,-0.236,-0.2367,-0.245,-0.2413,-0.2423,-0.2446,-0.2477,-0.2483,-0.253,-0.2557,-0.2569,-0.2542,-0.2625,-0.2641,-0.2688,-0.2654,-0.2704,-0.271,-0.2777,-0.2774,-0.2772,-0.268,0,0,0,0,0,0,-0.2358,-0.2368,-0.2398,-0.2413,-0.2423,-0.2469,-0.2476,-0.2484,-0.2517,-0.2521,-0.2595,-0.2606,-0.2626,-0.2678,-0.2693,-0.2663,-0.2714,-0.2779,-0.2775,-0.2773,-0.2685,-0.2675,-0.2666,0,0,0,0,0,-0.2355,-0.2362,-0.2401,-0.2408,-0.246,-0.2468,-0.2475,-0.2495,-0.252,-0.2539,-0.2573,-0.2604,-0.2668,-0.2683,-0.2701,-0.2671,-0.278,-0.2776,-0.2773,-0.269,-0.2677,-0.2667,0,0,0,0,0,0,-0.2311,-0.2367,-0.241,-0.243,-0.2458,-0.2472,-0.2475,-0.2513,-0.2561,-0.2571,-0.2612,-0.2624,-0.2625,-0.2678,-0.2693,-0.2678,-0.2719,-0.2719,-0.265,-0.2639,-0.2629,-0.2676,-0.2719,0,0,0,0,0,-0.2325,-0.2369,-0.2406,-0.2424,-0.2434,-0.2475,-0.2488,-0.2516,-0.2542,-0.2566,-0.26,-0.2629,-0.2623,-0.2659,-0.2661,-0.2704,-0.2729,-0.2686,-0.2676,-0.2668,-0.2715,-0.2702,-0.2696,-0.2759,-0.2759,-0.2759,0,0,-0.2337,-0.2345,-0.239,-0.2422,-0.2442,-0.2461,-0.2484,-0.2504,-0.2526,-0.2574,-0.2605,-0.2594,-0.2618,-0.2611,-0.2621,-0.2664,-0.265,-0.2664,-0.2656,-0.2709,-0.2697,-0.2692,-0.2686,-0.2757,-0.2757,-0.2758,0,0,-0.2299,-0.2364,-0.2377,-0.2405,-0.2426,-0.2456,-0.2469,-0.2504,-0.2527,-0.2555,-0.2555,-0.2548,-0.2578,-0.2576,-0.258,-0.2543,-0.2574,-0.2524,-0.2554,-0.2538,-0.2534,-0.253,-0.2502,-0.2497,-0.2551,-0.2551,-0.2551,0,-0.2303,-0.2332,-0.2377,-0.2368,-0.24,-0.2455,-0.248,-0.2502,-0.2548,-0.2567,-0.2548,-0.2546,-0.2556,-0.2556,-0.2521,-0.2522,-0.2521,-0.2591,-0.2527,-0.2524,-0.2523,-0.2496,-0.2491,-0.2546,-0.2547,-0.2547,-0.2548,0,-0.2256,-0.2313,-0.2302,-0.2347,-0.2383,-0.2411,-0.2453,-0.2486,-0.2509,-0.2528,-0.2517,-0.2505,-0.2519,-0.2482,-0.2496,-0.2482,-0.2481,-0.2485,-0.2558,-0.2511,-0.2484,-0.2481,-0.2539,-0.2541,-0.2542,-0.2544,0,0,-0.221,-0.2275,-0.2279,-0.2328,-0.2396,-0.2414,-0.2453,-0.2506,-0.2529,-0.2527,-0.2537,-0.2495,-0.2499,-0.2506,-0.2498,-0.2499,-0.2442,-0.2503,-0.2504,-0.2481,-0.2398,-0.2303,-0.2292,-0.2431,-0.2431,-0.2431,-0.2366,0,-0.2179,-0.2177,-0.2231,-0.2296,-0.2332,-0.242,-0.2451,-0.2506,-0.2526,-0.2536,-0.2525,-0.2508,-0.2504,-0.249,-0.2487,-0.2455,-0.2441,-0.246,-0.2447,-0.2447,-0.2374,-0.2288,-0.211,-0.2031,-0.2364,-0.2363,-0.2363,0,-0.2122,-0.2146,-0.2182,-0.2313,-0.2334,-0.2368,-0.246,-0.2496,-0.2533,-0.2545,-0.2551,-0.254,-0.2541,-0.2517,-0.2486,-0.2498,-0.2458,-0.2427,-0.2423,-0.2387,-0.2349,-0.2143,-0.2014,-0.2359,-0.2359,-0.236,-0.236,0,-0.2049,-0.2132,-0.2164,-0.2204,-0.2323,-0.2357,-0.2418,-0.2483,-0.252,-0.2545,-0.2558,-0.2559,-0.2538,-0.2513,-0.2459,-0.2474,-0.2399,-0.2405,-0.2281,-0.2274,-0.2153,-0.2134,-0.2374,-0.2374,-0.2374,-0.2374,-0.2374,0,-0.2004,-0.2045,-0.2128,-0.2151,-0.2203,-0.2307,-0.2353,-0.2409,-0.248,-0.252,-0.255,-0.2553,-0.2536,-0.2496,-0.2457,-0.2351,-0.2394,-0.2282,-0.225,-0.2108,-0.2087,-0.242,-0.2426,-0.2372,-0.2372,-0.2373,-0.2373,0,-0.1924,-0.1976,-0.2028,-0.2137,-0.2163,-0.2191,-0.2313,-0.2346,-0.2432,-0.248,-0.2492,-0.2533,-0.2472,-0.2431,-0.236,-0.2323,-0.2244,-0.2192,-0.2019,-0.1967,-0.2135,-0.2137,-0.2063,-0.2059,-0.2056,-0.2053,-0.2051,0,-0.1875,-0.1883,-0.1974,-0.199,-0.2034,-0.2097,-0.2141,-0.2276,-0.2321,-0.2462,-0.2464,-0.2447,-0.2397,-0.2253,-0.2132,-0.201,-0.2113,-0.1827,-0.1829,-0.2127,-0.2103,-0.2111,-0.2117,-0.1611,-0.1606,-0.1601,-0.1597,0,-0.1794,-0.1813,-0.185,-0.1879,-0.1916,-0.1968,-0.2045,-0.208,-0.2249,-0.2313,-0.2383,-0.2365,-0.2226,-0.1992,-0.1817,-0.1742,-0.1837,-0.1729,-0.2064,-0.1724,-0.1697,-0.1676,-0.1697,-0.1556,-0.156,-0.1563,-0.1565,-0.1567,-0.1713,-0.171,-0.1738,-0.1756,-0.1792,-0.1805,-0.1804,-0.1898,-0.1954,-0.2014,-0.2191,-0.2105,-0.204,-0.1638,-0.1515,-0.1389,-0.1522,-0.1484,-0.15,-0.1521,-0.1487,-0.1456,-0.1262,-0.1265,-0.1267,-0.1269,-0.127,0,-0.1614,-0.1609,-0.1619,-0.1622,-0.1594,-0.1667,-0.1711,-0.1668,-0.1665,-0.1764,-0.1828,-0.1656,-0.1453,-0.1351,-0.1073,-0.1035,-0.1041,-0.1012,-0.1028,-0.1068,-0.1104,-0.1052,-0.071,-0.0709,-0.0708,-0.0707,0,0,-0.156,-0.1514,-0.1516,-0.1411,-0.141,-0.1325,-0.1317,-0.1275,-0.1288,-0.1246,-0.1237,-0.1402,-0.1355,-0.1076,-0.0981,-0.0796,-0.094,-0.0753,-0.1197,-0.1258,-0.1293,-0.1359,-0.132,0,0,0,0,0]},{"header":{"parameterUnit":"m.s-1","parameterCategory":2,"la1":30.2991,"la2":30.254,"lo1":-89.0895,"lo2":-89.0444,"dy":0.0017,"dx":0.0017,"nx":28,"ny":28,"refTime":"2024-07-06T21:00:00:Z","depth":"2","parameterNumber":3,"parameterNumberName":"V-component_of_CURRENTS"},"data":[0,0,0,0,0,0,0,0,0,0,0,0,0,0,0,0,0,0,0,0,0,0,0,0,0,0,0,0,0,0,0,0,0,0,0,0,0,0,0,0,0,0,0,0,0,0,0,0,0,0,0,0,0,0,0,0,0,0,-0.0435,-0.0434,0,-0.0314,-0.0312,-0.0311,-0.0222,-0.0221,-0.0221,-0.022,0.003,0.0036,0.0042,0,0,0,0,0,0,0,0,0,0,0,0,0,-0.0555,-0.0553,-0.0435,-0.0434,-0.0432,-0.0314,-0.0312,-0.031,-0.0222,-0.0221,-0.0221,-0.022,0.0028,0.0036,0.0043,0,0,0,0,0,0,0,0,0,0,0,0,0,-0.0474,-0.0553,-0.0435,-0.0375,-0.0369,-0.0314,-0.0312,-0.031,-0.0222,-0.0221,-0.0221,-0.022,0.0026,0.0035,0.0044,0.0083,0,0,0.0072,0.0076,0,0,0,0,0,0,0,0,-0.0478,-0.0469,-0.0386,-0.0379,-0.0372,-0.0284,-0.0262,-0.0173,-0.0223,-0.0276,-0.022,-0.0219,-0.0064,-0.0048,-0.0026,0.0095,0.0106,0.0073,0.0079,0.0082,0.0085,0,0,0,0,0,0,0,-0.0484,-0.0474,-0.0385,-0.0384,-0.0376,-0.0343,-0.033,-0.0245,-0.0173,-0.0271,-0.0265,-0.0255,-0.0059,-0.0035,-0.0019,0.0109,0.0073,0.0081,0.0087,0.009,0.0305,0.0305,0,0,0,0,0,0,-0.0505,-0.0479,-0.0389,-0.0382,-0.0426,-0.0342,-0.0328,-0.0312,-0.0176,-0.0157,-0.0256,-0.0251,-0.0052,-0.003,-0.001,0.0059,0.0082,0.0091,0.0096,0.0305,0.0305,0.0306,0,0,0,0,0,0,-0.0508,-0.0498,-0.0394,-0.0429,-0.0414,-0.0341,-0.0323,-0.031,-0.0277,-0.0166,-0.0143,-0.0237,-0.005,-0.0023,0.0066,0.0069,0.0095,0.0104,0.0305,0.0305,0.0305,0.0189,0,0,0,0,0,0,-0.0512,-0.05,-0.0502,-0.0431,-0.0413,-0.0361,-0.0324,-0.0308,-0.0273,-0.0266,-0.0142,-0.0119,-0.0047,0.0052,0.0075,0.0083,0.0111,0.0305,0.0305,0.0305,0.0193,0.0186,0.0179,0,0,0,0,0,-0.0517,-0.0522,-0.0503,-0.0492,-0.0416,-0.0361,-0.0349,-0.0293,-0.0274,-0.026,-0.0181,-0.0122,0.0071,0.0059,0.0087,0.0097,0.0304,0.0305,0.0305,0.0196,0.0187,0.018,0,0,0,0,0,0,-0.057,-0.0512,-0.0489,-0.0475,-0.0423,-0.0347,-0.0336,-0.0297,-0.0226,-0.0217,-0.0114,-0.0085,-0.002,0.0062,0.0046,0.016,0.0196,0.0202,0.0103,0.0096,0.0089,0.009,0.0118,0,0,0,0,0,-0.0586,-0.0579,-0.0509,-0.05,-0.0477,-0.0408,-0.0382,-0.0341,-0.027,-0.0239,-0.0155,-0.0065,0.0001,0.0067,0.0132,0.0215,0.027,0.0238,0.0231,0.0225,0.0245,0.03,0.0299,0.0307,0.0307,0.0307,0,0,-0.0609,-0.0574,-0.0572,-0.0512,-0.0469,-0.0431,-0.0389,-0.0351,-0.0313,-0.022,-0.0149,-0.0097,0.001,0.0077,0.0118,0.0155,0.0249,0.0226,0.0219,0.0244,0.03,0.0299,0.0299,0.0307,0.0307,0.0307,0,0,-0.0637,-0.0614,-0.0609,-0.0567,-0.0507,-0.0459,-0.045,-0.0372,-0.0333,-0.0262,-0.0205,-0.0143,-0.0017,0.0054,0.0107,0.0115,0.0186,0.013,0.0132,0.0182,0.0182,0.0182,0.0231,0.0237,0.0156,0.0156,0.0156,0,-0.0667,-0.0643,-0.0599,-0.0571,-0.0544,-0.0473,-0.045,-0.0396,-0.0299,-0.0267,-0.0248,-0.0105,-0.0024,0.0063,0.0063,0.01,0.0136,0.0146,0.0171,0.0173,0.0175,0.0225,0.0233,0.015,0.0151,0.0151,0.0152,0,-0.0671,-0.0656,-0.065,-0.0592,-0.0556,-0.053,-0.045,-0.0409,-0.0361,-0.0303,-0.0232,-0.0141,-0.0045,-0.0024,0.0032,0.0089,0.0107,0.0125,0.0183,0.0167,0.0221,0.0231,0.0142,0.0144,0.0146,0.0147,0,0,-0.0733,-0.0668,-0.0668,-0.0653,-0.0568,-0.0543,-0.0482,-0.0409,-0.0372,-0.0293,-0.0242,-0.0141,-0.0105,-0.0041,0.0018,0.0081,0.0116,0.0114,0.0119,0.0147,0.0223,0.0253,0.0267,0.0125,0.0126,0.0128,0.0245,0,-0.0751,-0.0727,-0.0678,-0.0656,-0.0639,-0.0563,-0.0515,-0.0441,-0.037,-0.0303,-0.0214,-0.0148,-0.0105,-0.0073,-0.0008,0.0081,0.0141,0.0083,0.025,0.0256,0.0271,0.028,0.0241,0.0345,0.0256,0.0258,0.0259,0,-0.0765,-0.0753,-0.0739,-0.0697,-0.0682,-0.0654,-0.058,-0.0527,-0.041,-0.0354,-0.027,-0.0197,-0.0089,-0.0067,0.0095,0.005,0.0133,0.0202,0.0208,0.0292,0.0306,0.0354,0.0368,0.0277,0.0275,0.0274,0.0273,0,-0.0835,-0.0797,-0.0798,-0.078,-0.0711,-0.0698,-0.066,-0.0554,-0.0511,-0.039,-0.0339,-0.0215,-0.014,-0.0032,0.0123,0.0106,0.0292,0.0289,0.0396,0.0399,0.0435,0.0438,0.0399,0.0399,0.0399,0.0399,0.0398,0,-0.0871,-0.0875,-0.084,-0.0841,-0.0853,-0.0775,-0.0757,-0.0688,-0.0588,-0.0534,-0.0385,-0.0299,-0.0128,0.0006,0.0119,0.0298,0.0294,0.041,0.0439,0.0392,0.039,0.0391,0.0389,0.0403,0.0402,0.0401,0.04,0,-0.0935,-0.0907,-0.0919,-0.0887,-0.0886,-0.0897,-0.0847,-0.0823,-0.0703,-0.0626,-0.0589,-0.0359,-0.0163,0.0009,0.0215,0.031,0.0462,0.0524,0.0459,0.0478,0.0532,0.0522,0.0654,0.0656,0.0658,0.0659,0.0661,0,-0.0957,-0.0969,-0.0982,-0.1009,-0.1002,-0.1007,-0.1007,-0.0908,-0.0872,-0.0654,-0.0623,-0.0385,-0.0187,0.0142,0.0336,0.0549,0.0536,0.0625,0.0596,0.0547,0.0562,0.0549,0.0537,0.059,0.0591,0.0592,0.0592,0,-0.101,-0.1019,-0.1038,-0.11,-0.1129,-0.1148,-0.1135,-0.1117,-0.0977,-0.0861,-0.0626,-0.0432,-0.0067,0.021,0.0475,0.0577,0.0584,0.0643,0.0628,0.0527,0.0496,0.0507,0.0496,0.0597,0.0596,0.0596,0.0596,0.0595,-0.1057,-0.1098,-0.1131,-0.1186,-0.123,-0.1258,-0.1265,-0.1208,-0.1122,-0.0896,-0.0697,-0.0361,-0.0085,0.0336,0.0524,0.0689,0.0682,0.0699,0.0694,0.0689,0.0656,0.063,0.0749,0.075,0.075,0.075,0.0751,0,-0.11,-0.1142,-0.1208,-0.1273,-0.1328,-0.1329,-0.1324,-0.1279,-0.1172,-0.0893,-0.0645,-0.0314,0.0015,0.0314,0.0604,0.0761,0.0726,0.076,0.0686,0.068,0.0676,0.0638,0.0729,0.073,0.073,0.0731,0,0,-0.1127,-0.1188,-0.1222,-0.1328,-0.1379,-0.1413,-0.1406,-0.1312,-0.1116,-0.0825,-0.0554,-0.0275,0.0095,0.0264,0.046,0.0635,0.0612,0.063,0.0627,0.0512,0.0506,0.0618,0.0552,0,0,0,0,0]}],[{"header":{"parameterUnit":"m.s-1","parameterCategory":2,"la1":30.2991,"la2":30.254,"lo1":-89.0895,"lo2":-89.0444,"dy":0.0017,"dx":0.0017,"nx":28,"ny":28,"refTime":"2024-07-06T21:00:00:Z","depth":"4","parameterNumber":2,"parameterNumberName":"U-component_of_CURRENTS"},"data":[0,0,0,0,0,0,0,0,0,0,0,0,0,0,0,0,0,0,0,0,0,0,0,0,0,0,0,0,0,0,0,0,0,0,0,0,0,0,0,0,0,0,0,0,0,0,0,0,0,0,0,0,0,0,0,0,0,0,-0.1499,-0.15,0,-0.1542,-0.1542,-0.1542,-0.157,-0.157,-0.1571,-0.1571,-0.1644,-0.1646,-0.1647,0,0,0,0,0,0,0,0,0,0,0,0,0,-0.1402,-0.1404,-0.1499,-0.15,-0.1501,-0.1542,-0.1542,-0.1542,-0.1569,-0.157,-0.1571,-0.1572,-0.1644,-0.1646,-0.1647,0,0,0,0,0,0,0,0,0,0,0,0,0,-0.144,-0.1404,-0.1498,-0.1523,-0.1526,-0.1542,-0.1542,-0.1542,-0.1569,-0.157,-0.1571,-0.1572,-0.1643,-0.1645,-0.1647,-0.1642,0,0,-0.1654,-0.1655,0,0,0,0,0,0,0,0,-0.1438,-0.1443,-0.1518,-0.1521,-0.1525,-0.1556,-0.1535,-0.1579,-0.1569,-0.1548,-0.1571,-0.1572,-0.162,-0.1624,-0.1623,-0.1646,-0.1649,-0.1654,-0.1655,-0.1656,-0.1657,0,0,0,0,0,0,0,-0.1435,-0.1441,-0.1511,-0.1519,-0.1523,-0.1519,-0.1525,-0.1543,-0.1575,-0.155,-0.1553,-0.1565,-0.1621,-0.1621,-0.1625,-0.165,-0.1654,-0.1656,-0.1657,-0.1658,-0.1731,-0.1732,0,0,0,0,0,0,-0.1441,-0.1439,-0.151,-0.1513,-0.1488,-0.1521,-0.1527,-0.1541,-0.1574,-0.1581,-0.1564,-0.1566,-0.1617,-0.1622,-0.1628,-0.1708,-0.1656,-0.1658,-0.1659,-0.1731,-0.1732,-0.1732,0,0,0,0,0,0,-0.1439,-0.1447,-0.1508,-0.148,-0.1489,-0.1522,-0.1536,-0.1541,-0.1575,-0.1586,-0.1593,-0.1598,-0.1618,-0.1625,-0.1671,-0.1708,-0.1659,-0.1661,-0.173,-0.1731,-0.1732,-0.1815,0,0,0,0,0,0,-0.1436,-0.1446,-0.1463,-0.1481,-0.1491,-0.1536,-0.1536,-0.1542,-0.1582,-0.1585,-0.1617,-0.1622,-0.1619,-0.1668,-0.1673,-0.171,-0.1663,-0.1729,-0.173,-0.1732,-0.1811,-0.1819,-0.1825,0,0,0,0,0,-0.1432,-0.145,-0.1463,-0.1473,-0.1511,-0.1537,-0.1542,-0.1564,-0.1583,-0.1598,-0.1624,-0.1623,-0.1679,-0.1671,-0.1676,-0.1715,-0.1728,-0.173,-0.1732,-0.1808,-0.1817,-0.1825,0,0,0,0,0,0,-0.1416,-0.1455,-0.147,-0.15,-0.1527,-0.1544,-0.1565,-0.1585,-0.1616,-0.1631,-0.164,-0.1647,-0.1694,-0.169,-0.168,-0.1735,-0.1701,-0.1703,-0.1757,-0.1765,-0.1772,-0.1784,-0.1664,0,0,0,0,0,-0.1421,-0.1449,-0.148,-0.1507,-0.1525,-0.1552,-0.1571,-0.159,-0.1618,-0.1634,-0.1658,-0.1679,-0.1697,-0.1723,-0.1729,-0.1773,-0.1753,-0.1796,-0.1803,-0.1809,-0.182,-0.182,-0.1829,-0.1738,-0.1738,-0.1738,0,0,-0.1421,-0.145,-0.1465,-0.1507,-0.153,-0.1572,-0.1565,-0.1605,-0.1651,-0.1637,-0.1707,-0.1705,-0.1711,-0.1751,-0.1772,-0.1762,-0.1821,-0.1811,-0.1817,-0.1825,-0.1823,-0.1832,-0.184,-0.1739,-0.1738,-0.1738,0,0,-0.1436,-0.1465,-0.1494,-0.1527,-0.1577,-0.1598,-0.1621,-0.166,-0.1688,-0.1744,-0.1741,-0.1768,-0.1806,-0.1814,-0.1824,-0.1874,-0.185,-0.1875,-0.1937,-0.1937,-0.1945,-0.1952,-0.1927,-0.1931,-0.1889,-0.1889,-0.1889,0,-0.1441,-0.1488,-0.1506,-0.1551,-0.1595,-0.1621,-0.1675,-0.1703,-0.1755,-0.1782,-0.178,-0.1828,-0.1837,-0.1884,-0.1901,-0.1894,-0.1878,-0.191,-0.1948,-0.1954,-0.196,-0.1933,-0.1936,-0.1893,-0.1892,-0.1892,-0.1892,0,-0.1472,-0.153,-0.1554,-0.1628,-0.1669,-0.1719,-0.177,-0.1812,-0.1852,-0.1876,-0.1928,-0.1927,-0.1954,-0.1959,-0.1956,-0.2,-0.1969,-0.195,-0.1932,-0.1975,-0.1943,-0.1945,-0.1899,-0.1897,-0.1896,-0.1895,0,0,-0.1436,-0.1556,-0.1568,-0.1626,-0.1723,-0.1754,-0.1841,-0.1911,-0.1958,-0.1996,-0.2045,-0.208,-0.2067,-0.2075,-0.2062,-0.2073,-0.2097,-0.2041,-0.2039,-0.2024,-0.2082,-0.1929,-0.1915,-0.2088,-0.2089,-0.209,-0.2041,0,-0.1466,-0.1564,-0.1624,-0.1732,-0.1791,-0.186,-0.1936,-0.2,-0.2042,-0.2085,-0.2095,-0.2125,-0.2115,-0.2121,-0.2136,-0.2099,-0.2108,-0.2111,-0.2036,-0.2034,-0.1899,-0.1915,-0.2094,-0.2042,-0.2042,-0.2043,-0.2043,0,-0.1472,-0.1547,-0.1656,-0.1798,-0.183,-0.1898,-0.201,-0.2074,-0.2141,-0.2172,-0.2204,-0.2197,-0.2225,-0.2195,-0.2184,-0.2186,-0.2152,-0.212,-0.2117,-0.1948,-0.1884,-0.1991,-0.2046,-0.2045,-0.2045,-0.2045,-0.2045,0,-0.1419,-0.1568,-0.1659,-0.1708,-0.1863,-0.1927,-0.2004,-0.2095,-0.2141,-0.2208,-0.2229,-0.2261,-0.2254,-0.2242,-0.2183,-0.2192,-0.2137,-0.2135,-0.1965,-0.1953,-0.2072,-0.2065,-0.213,-0.2131,-0.2131,-0.2131,-0.2131,0,-0.1417,-0.1493,-0.1642,-0.1692,-0.1789,-0.1907,-0.1995,-0.207,-0.2157,-0.2185,-0.2254,-0.225,-0.2267,-0.2231,-0.2193,-0.2065,-0.2146,-0.1972,-0.1932,-0.2104,-0.2102,-0.2072,-0.2066,-0.2129,-0.2129,-0.213,-0.213,0,-0.1345,-0.145,-0.1554,-0.1719,-0.1766,-0.1826,-0.1973,-0.2019,-0.2126,-0.2157,-0.2178,-0.2236,-0.2181,-0.2161,-0.2109,-0.2043,-0.1959,-0.1895,-0.2062,-0.2032,-0.1778,-0.1777,-0.1713,-0.1708,-0.1703,-0.1699,-0.1695,0,-0.1317,-0.1366,-0.1528,-0.1573,-0.1653,-0.1758,-0.1821,-0.1969,-0.2004,-0.2115,-0.21,-0.2102,-0.2107,-0.1908,-0.192,-0.1821,-0.1799,-0.1767,-0.1801,-0.1769,-0.1737,-0.1743,-0.1749,-0.1687,-0.1686,-0.1685,-0.1683,0,-0.1256,-0.1318,-0.1394,-0.1479,-0.1555,-0.1626,-0.1723,-0.1738,-0.188,-0.1998,-0.1963,-0.1928,-0.1851,-0.1791,-0.1711,-0.1654,-0.18,-0.1716,-0.1727,-0.1758,-0.1736,-0.1711,-0.1722,-0.1666,-0.1669,-0.167,-0.1671,0,-0.119,-0.1215,-0.1303,-0.1363,-0.1441,-0.1458,-0.1539,-0.1584,-0.164,-0.1782,-0.1754,-0.1766,-0.182,-0.17,-0.1632,-0.155,-0.1538,-0.1519,-0.154,-0.1559,-0.1528,-0.1479,-0.1291,0,0,0,0,0,-0.1119,-0.1133,-0.1181,-0.1231,-0.1296,-0.1331,-0.1452,-0.1536,-0.1672,-0.16,-0.1679,-0.1604,-0.1522,-0.1534,-0.1408,-0.1536,-0.1527,-0.1387,-0.1515,-0.1572,-0.1592,-0.1568,0,0,0,0,0,0,-0.1071,-0.1116,-0.1135,-0.1091,-0.109,-0.114,-0.1204,-0.1305,-0.1284,-0.1431,-0.138,-0.1502,-0.142,-0.1533,-0.1363,-0.1364,-0.1414,-0.1411,-0.1407,-0.1561,-0.1579,-0.1595,-0.1577,0,0,0,0,0]},{"header":{"parameterUnit":"m.s-1","parameterCategory":2,"la1":30.2991,"la2":30.254,"lo1":-89.0895,"lo2":-89.0444,"dy":0.0017,"dx":0.0017,"nx":28,"ny":28,"refTime":"2024-07-06T21:00:00:Z","depth":"4","parameterNumber":3,"parameterNumberName":"V-component_of_CURRENTS"},"data":[0,0,0,0,0,0,0,0,0,0,0,0,0,0,0,0,0,0,0,0,0,0,0,0,0,0,0,0,0,0,0,0,0,0,0,0,0,0,0,0,0,0,0,0,0,0,0,0,0,0,0,0,0,0,0,0,0,0,-0.0346,-0.0345,0,-0.0296,-0.0295,-0.0295,-0.0259,-0.0259,-0.0259,-0.0259,-0.0181,-0.0179,-0.0177,0,0,0,0,0,0,0,0,0,0,0,0,0,-0.0383,-0.0383,-0.0346,-0.0345,-0.0344,-0.0296,-0.0295,-0.0294,-0.0259,-0.0259,-0.0259,-0.0258,-0.0182,-0.018,-0.0177,0,0,0,0,0,0,0,0,0,0,0,0,0,-0.0353,-0.0383,-0.0346,-0.0321,-0.0319,-0.0296,-0.0295,-0.0294,-0.0259,-0.0259,-0.0259,-0.0258,-0.0182,-0.018,-0.0177,-0.0167,0,0,-0.0169,-0.0167,0,0,0,0,0,0,0,0,-0.0355,-0.0352,-0.0326,-0.0323,-0.032,-0.0284,-0.028,-0.0251,-0.0259,-0.0281,-0.0258,-0.0258,-0.0214,-0.0208,-0.0199,-0.0163,-0.016,-0.0168,-0.0167,-0.0165,-0.0165,0,0,0,0,0,0,0,-0.0357,-0.0354,-0.0325,-0.0325,-0.0322,-0.0304,-0.0299,-0.0274,-0.0249,-0.0279,-0.0277,-0.0272,-0.0212,-0.0202,-0.0197,-0.0159,-0.0168,-0.0166,-0.0164,-0.0163,-0.0099,-0.0099,0,0,0,0,0,0,-0.0366,-0.0356,-0.0327,-0.0324,-0.0338,-0.0304,-0.0299,-0.0295,-0.025,-0.0243,-0.0273,-0.0271,-0.0207,-0.02,-0.0194,-0.0148,-0.0165,-0.0163,-0.0161,-0.0099,-0.0099,-0.0099,0,0,0,0,0,0,-0.0367,-0.0364,-0.0329,-0.0339,-0.0333,-0.0304,-0.03,-0.0295,-0.0286,-0.0245,-0.0237,-0.027,-0.0206,-0.0198,-0.0171,-0.0146,-0.0162,-0.0159,-0.0099,-0.0099,-0.0099,-0.0075,0,0,0,0,0,0,-0.0369,-0.0365,-0.0373,-0.034,-0.0333,-0.0318,-0.03,-0.0294,-0.0284,-0.0281,-0.0241,-0.0233,-0.0205,-0.0175,-0.0168,-0.0142,-0.0157,-0.0099,-0.0099,-0.0099,-0.0076,-0.0074,-0.0073,0,0,0,0,0,-0.037,-0.0381,-0.0373,-0.037,-0.0342,-0.0318,-0.0313,-0.029,-0.0285,-0.0282,-0.0253,-0.0234,-0.0169,-0.0173,-0.0164,-0.0137,-0.0099,-0.0099,-0.0099,-0.0076,-0.0074,-0.0073,0,0,0,0,0,0,-0.0402,-0.0378,-0.0368,-0.0372,-0.0348,-0.0312,-0.0313,-0.0296,-0.0272,-0.0271,-0.0232,-0.0222,-0.0191,-0.0176,-0.0181,-0.0122,-0.0132,-0.013,-0.0117,-0.0115,-0.0114,-0.0108,-0.0155,0,0,0,0,0,-0.0413,-0.0418,-0.0384,-0.0389,-0.0379,-0.0348,-0.0339,-0.0319,-0.0292,-0.0281,-0.0252,-0.0221,-0.0185,-0.0161,-0.0139,-0.0103,-0.0082,-0.0083,-0.0082,-0.008,-0.0072,-0.0019,-0.0011,-0.0098,-0.0098,-0.0098,0,0,-0.0429,-0.0417,-0.042,-0.0397,-0.0379,-0.0356,-0.0341,-0.0328,-0.03,-0.0276,-0.0242,-0.022,-0.0179,-0.0139,-0.0122,-0.0119,-0.0047,-0.008,-0.0079,-0.0072,-0.0018,-0.0009,-0.0001,-0.0098,-0.0098,-0.0098,0,0,-0.0453,-0.0449,-0.0453,-0.0431,-0.0405,-0.0377,-0.0374,-0.0338,-0.0315,-0.0281,-0.0254,-0.0212,-0.0173,-0.0121,-0.0092,-0.0069,-0.0049,-0.0076,-0.0045,0.0007,0.0015,0.0023,0.0053,0.0063,-0.0063,-0.0063,-0.0063,0,-0.0472,-0.047,-0.0451,-0.0438,-0.0422,-0.0386,-0.0372,-0.0336,-0.0295,-0.0271,-0.0272,-0.019,-0.0153,-0.0076,-0.0063,-0.0059,-0.0046,-0.0051,0.0012,0.002,0.0027,0.0056,0.0067,-0.0061,-0.0062,-0.0062,-0.0062,0,-0.0483,-0.0481,-0.0482,-0.045,-0.0428,-0.0417,-0.036,-0.0334,-0.0306,-0.0265,-0.0207,-0.0154,-0.0104,-0.008,-0.0057,0.0015,0.0001,0.0001,0.0012,0.0038,0.0066,0.0077,-0.006,-0.006,-0.006,-0.0061,0,0,-0.0526,-0.0498,-0.0499,-0.0493,-0.0436,-0.0424,-0.0367,-0.031,-0.0281,-0.0223,-0.0179,-0.009,-0.0071,-0.0038,-0.0002,0.0059,0.0131,0.0052,0.0054,0.009,0.0225,0.0191,0.0199,0.0136,0.0138,0.014,0.022,0,-0.0542,-0.0541,-0.0508,-0.0495,-0.0488,-0.0429,-0.0387,-0.0326,-0.027,-0.0219,-0.0133,-0.0088,-0.005,-0.0034,0.0041,0.0096,0.0161,0.0108,0.0186,0.0189,0.0164,0.0212,0.0147,0.0228,0.0231,0.0233,0.0234,0,-0.0555,-0.0558,-0.0558,-0.0531,-0.0522,-0.0504,-0.0441,-0.0396,-0.0293,-0.025,-0.0166,-0.0113,-0.0006,0.0006,0.0154,0.011,0.0173,0.0224,0.0228,0.0198,0.0176,0.0198,0.0254,0.0253,0.0251,0.025,0.0248,0,-0.0605,-0.0589,-0.0602,-0.059,-0.0546,-0.0538,-0.051,-0.0418,-0.0385,-0.0277,-0.0244,-0.0114,-0.0061,0.0046,0.0165,0.0154,0.031,0.0307,0.0344,0.0341,0.0336,0.0328,0.042,0.042,0.042,0.042,0.042,0,-0.0628,-0.064,-0.064,-0.0647,-0.0668,-0.0608,-0.0601,-0.0541,-0.046,-0.0425,-0.0283,-0.0222,-0.005,0.0062,0.0162,0.0285,0.0313,0.0362,0.037,0.0341,0.0331,0.0344,0.0334,0.0423,0.0422,0.0422,0.0421,0,-0.0668,-0.0666,-0.0691,-0.0687,-0.0696,-0.0712,-0.0689,-0.0672,-0.058,-0.0529,-0.05,-0.0302,-0.0146,0.002,0.0202,0.0272,0.0393,0.0429,0.0379,0.0379,0.0388,0.0378,0.0479,0.0479,0.0478,0.0478,0.0478,0,-0.0681,-0.0703,-0.0747,-0.0785,-0.0794,-0.0815,-0.0826,-0.0752,-0.0721,-0.0579,-0.0555,-0.0376,-0.0242,0.0004,0.0178,0.0377,0.0402,0.0453,0.0443,0.0402,0.04,0.039,0.0381,0.0478,0.0478,0.0477,0.0477,0,-0.0713,-0.0742,-0.0772,-0.0856,-0.0901,-0.0933,-0.0937,-0.0919,-0.082,-0.0753,-0.0593,-0.0424,-0.0235,-0.001,0.0153,0.0293,0.0412,0.0451,0.0452,0.0443,0.0401,0.0397,0.0388,0.0477,0.0477,0.0477,0.0477,0,-0.0744,-0.0786,-0.0843,-0.0908,-0.0981,-0.1016,-0.1009,-0.0955,-0.0907,-0.074,-0.0698,-0.0456,-0.0304,-0.0053,0.0091,0.0234,0.0267,0.0289,0.03,0.0303,0.0228,0.0148,0.0167,0,0,0,0,0,-0.0758,-0.0811,-0.0885,-0.096,-0.1033,-0.1063,-0.1062,-0.103,-0.0945,-0.0856,-0.0768,-0.0589,-0.0308,-0.015,-0.0014,0.0072,0.0275,0.0231,0.0301,0.0472,0.0473,0.0414,0,0,0,0,0,0,-0.0774,-0.0848,-0.0886,-0.0985,-0.1041,-0.1107,-0.1103,-0.105,-0.0967,-0.0863,-0.0697,-0.0595,-0.0305,-0.0399,-0.0025,0.0026,0.0079,0.0378,0.038,0.0471,0.0472,0.0473,0.0412,0,0,0,0,0]}]]